Location: *
(34.0486°S, 61.7880°E)
Time: 13:05:28
(UTC+00:00)

Cosmos 1939 Rocket - Pass Details

Date: 01 April 2020
Orbit: 533 x 584 km, 97.4° (Epoch: 04 June)

Event Time Altitude Azimuth Distance (km) Brightness Sun altitude
Rises 14:32:15 0° 155° (SSE) 2,841 6.2 -10.1°
Reaches altitude 10° 14:34:43 10° 142° (SE) 1,927 5.2 -10.6°
Maximum altitude 14:38:16 26° 84° (E) 1,154 3.9 -11.4°
Drops below altitude 10° 14:41:44 10° 26° (NNE) 1,885 5.3 -12.1°
Sets 14:44:07 0° 13° (NNE) 2,765 6.2 -12.6°
